This is the latest recevied weather packets stored in our database for station/object IA5FYI-13. If no packets are shown the sender has not sent any weather packets the latest 10 day(s).
| Time | Temp. | Humidity | Pressure | Rain* | Wind** | Luminosity | Snow |
|---|---|---|---|---|---|---|---|
| 1777964709 | 17.78° C | 93% | 1010.8 hPa | 0 mm | - | - | - |
| 1777964433 | 17.78° C | 93% | 1011.2 hPa | 2.54 mm | - | - | - |
| 1777964109 | 17.78° C | 93% | 1011.2 hPa | 2.54 mm | - | - | - |
| 1777963813 | 17.78° C | 93% | 1010.5 hPa | 2.54 mm | - | - | - |
| 1777963513 | 17.78° C | 93% | 1011.2 hPa | 2.54 mm | - | - | - |
| 1777963213 | 17.78° C | 94% | 1010.8 hPa | 2.03 mm | - | - | - |
| 1777962910 | 17.78° C | 94% | 1010.5 hPa | 2.03 mm | - | - | - |
| 1777962623 | 17.78° C | 94% | 1010.8 hPa | 2.03 mm | - | - | - |
| 1777962309 | 17.78° C | 94% | 1010.5 hPa | 2.03 mm | - | - | - |
| 1777962013 | 17.78° C | 94% | 1010.8 hPa | 0.76 mm | - | - | - |
| 1777961712 | 17.78° C | 94% | 1010.8 hPa | 0.76 mm | - | - | - |
| 1777961412 | 17.78° C | 94% | 1011.2 hPa | 0.51 mm | - | - | - |
| 1777961109 | 17.78° C | 94% | 1010.8 hPa | 0 mm | - | - | - |
| 1777960832 | 17.78° C | 94% | 1011.2 hPa | 2.54 mm | - | - | - |
| 1777960509 | 17.78° C | 94% | 1010.8 hPa | 2.54 mm | - | - | - |
| 1777960213 | 17.78° C | 94% | 1010.8 hPa | 2.54 mm | - | - | - |
| 1777959912 | 17.78° C | 94% | 1011.2 hPa | 2.54 mm | - | - | - |
| 1777959613 | 17.78° C | 94% | 1010.8 hPa | 1.27 mm | - | - | - |
| 1777959309 | 17.78° C | 94% | 1010.5 hPa | 1.27 mm | - | - | - |
| 1777959022 | 17.78° C | 94% | 1010.8 hPa | 0 mm | - | - | - |
| 1777958709 | 17.78° C | 95% | 1010.5 hPa | 0 mm | - | - | - |
| 1777958412 | 17.78° C | 95% | 1010.8 hPa | 0 mm | - | - | - |
| 1777958112 | 17.22° C | 95% | 1010.8 hPa | 0 mm | - | - | - |
| 1777957813 | 17.22° C | 95% | 1010.5 hPa | 0 mm | - | - | - |
| 1777957509 | 17.22° C | 95% | 1010.8 hPa | 0 mm | - | - | - |
* Rain latest hour (hover to see other rain measurements)
** Current wind speed in m/s (hover to see current wind gust speed)